KOREASAT 5 (MUGUNGWHA 5)

Last updated on Thu Oct 30 2025 00:02:47 GMT+0000 (Coordinated Universal Time)

1 29349U 06034A 25302.52729324 -.00000347 00000+0 00000+0 0 9999 2 29349 1.1816 86.1198 0002043 153.8042 101.0861 1.00269520 39005
UTC large
Height (km)
Speed (km/s)
/
Latitude / Longitude
Inclination (degrees)
Orbital Period (minutes)
Azimuth
Elevation
Range (km)
Doppler Factor

Next 0 passes for location: London (51.5072 / 0.1276)

Sorry there are no passes over London.